Погода в Прогрессе

Россия / Республика Адыгея     44°52′10″N   40°11′34″E
темп.,
°C
ветер,
м/с
пор.,
м/с
влажн.,
%
обл.,
%
осадки,
мм/ч
давл.,
гПа
погр.,
м
25 мая, ср
ср2500:00+8юз359312 0.0 101788
03:00+7юз349313 0.0 101763
06:00+8юз35915 0.0 1019100
09:00+15з34620 0.0 1019677
12:00+18зсз45515 0.0 10191954
15:00+19сз575012 0.0 10191928
18:00+17зсз35685 0.0 1020694
21:00+12юз227752 0.0 102215
26 мая, чт
чт2600:00+11юз22785 0.0 102217
03:00+8юз228743 0.0 102218
06:00+10ююз23844 0.0 102277
09:00+17ю01610 0.0 1022659
12:00+20ссз22493 0.0 10211730
15:00+20с22486 0.0 10201632
18:00+19с226599 0.0 1019233
21:00+13сз007854 0.0 102010
27 мая, пт
пт2700:00+12зюз2281100 0.0 102023
03:00+11юз338296 0.0 102037
06:00+12юз228189 0.0 102060
09:00+17з355814 0.0 1020647
12:00+20зсз564963 0.0 10201082
15:00+20сз45533 0.0 10191078
18:00+20сз24674 0.0 1019953
21:00+14ююв22810 0.0 101914
28 мая, сб
сб2800:00+13ююв22822 0.0 101919
03:00+11ююв22860 0.0 101816
06:00+13юв23820 0.0 101768
09:00+20в34623 0.0 1016566
12:00+23всв33560 0.0 10151174
15:00+25св335416 0.0 10141593
18:00+23св36690 0.0 1014295
21:00+18в35860 0.0 101474
29 мая, вс
вс2900:00+16вюв34890 0.0 101355
03:00+15юз11900 0.0 101312
06:00+16юз23880 0.0 101474
09:00+22зсз23700 0.0 1014403
12:00+26зсз33540 0.0 1014931
15:00+27ссз22510 0.0 10141041
18:00+26св23650 0.0 1014159
21:00+20всв22720 0.0 101513